DW9354 Weather Reports


Display with metric or nautical units.
time (UTC)temp
F
wind
direction
speed
MPH
gust
MPH
rain 1hr
in
rain 24hr
in
rain mn
in
humidity
%
barometer
mb
20260509191700 75 306 1.0 6.0 0.00 0.00 0.00 55 1008.2
20260509190155 75 245 0.0 10.0 0.00 0.00 0.00 51 1008.5
20260509184653 76 219 2.0 7.0 0.00 0.00 0.00 54 1008.7
20260509183149 76 278 4.0 11.0 0.00 0.00 0.00 54 1008.8
20260509181644 76 325 3.0 14.0 0.00 0.00 0.00 52 1009.0
20260509180138 76 343 2.0 6.0 0.00 0.00 0.00 53 1009.3
20260509174635 73 276 5.0 8.0 0.00 0.00 0.00 56 1009.2
20260509173128 73 293 2.0 13.0 0.00 0.00 0.00 57 1009.6
20260509171624 72 252 2.0 11.0 0.00 0.00 0.00 58 1009.8
20260509170124 73 269 3.0 13.0 0.00 0.00 0.00 60 1010.0
20260509164618 72 47 2.0 9.0 0.00 0.00 0.00 58 1010.1
20260509163113 72 265 3.0 12.0 0.00 0.00 0.00 60 1010.2
20260509161609 71 26 2.0 9.0 0.00 0.00 0.00 57 1010.3
20260509154601 71 20 1.0 10.0 0.00 0.00 0.00 61 1010.5
20260509153057 70 145 1.0 8.0 0.00 0.00 0.00 62 1010.9
20260509151559 68 28 1.0 7.0 0.00 0.00 0.00 67 1011.0
20260509150049 67 342 0.0 12.0 0.00 0.00 0.00 68 1011.1
20260509144545 65 1 2.0 5.0 0.00 0.00 0.00 72 1011.2
20260509143041 64 37 1.0 9.0 0.00 0.00 0.00 75 1011.7
20260509141537 64 288 0.0 6.0 0.00 0.00 0.00 77 1011.9
20260509140034 63 72 0.0 8.0 0.00 0.00 0.00 76 1012.0
20260509134531 63 29 1.0 7.0 0.00 0.00 0.00 77 1012.0
20260509133026 62 255 0.0 5.0 0.00 0.00 0.00 78 1012.2
20260509131522 61 266 1.0 6.0 0.00 0.00 0.00 79 1012.4
20260509130030 60 340 2.0 7.0 0.00 0.00 0.00 79 1012.3
20260509124513 58 32 3.0 7.0 0.00 0.00 0.00 80 1012.3
20260509123009 57 56 1.0 7.0 0.00 0.00 0.00 85 1012.2
20260509121506 55 269 1.0 4.0 0.00 0.00 0.00 88 1012.4
20260509120001 53 339 0.0 3.0 0.00 0.00 0.00 90 1012.4